Weather in Yeppoon

Australia     23°15′32″S   150°49′16″E
temp.,
°C
wind,
m/s
gust,
m/s
humid.,
%
clouds,
%
prec.,
mm/h
press.,
hPa
HPBL,
m
16 april, fri
fri1601:00+22e34777 0.0 1016487
04:00+21e23775 0.0 1014444
07:00+21sse33785 0.0 1016361
10:00+24se34700 0.0 1017676
13:00+25e44610 0.0 1015870
16:00+24e56620 0.0 1014707
19:00+22e57680 0.0 1016463
22:00+23e58640 0.0 1017575
17 april, sat
sat1701:00+22e57690 0.0 1016682
04:00+22ese58700 0.0 1015722
07:00+22se4770100 0.0 1016788
10:00+23sse457094 0.1 1017578
13:00+24ese5563100 0.1 1015955
16:00+24e45630 0.1 1014611
19:00+23e45690 0.0 1015350
22:00+22sse34740 0.0 1016469
18 april, sun
sun1801:00+19ssw34850 0.1 1015164
04:00+18ssw44830 0.1 1015178
07:00+18ssw33770 0.0 1016183
10:00+23s23580 0.0 1016623
13:00+25ese23510 0.0 1013918
16:00+24ene43600 0.0 1012335
19:00+21ese12730 0.0 1014256
22:00+21se23750 0.0 1015362
19 april, mon
mon1901:00+20s45820 0.1 1015325
04:00+18sse57810 0.1 1014293
07:00+19sse588320 0.1 1016399
10:00+23se786932 0.3 1017943
13:00+23ese88680 0.1 1015930
16:00+23ese78650 0.1 1014961
19:00+22e57660 0.0 1015564
22:00+22e57640 0.0 1016641
20 april, tue
tue2001:00+22e46675 0.0 1016631
04:00+21ese46690 0.0 1015596
07:00+20sse46770 0.0 1017389
10:00+23se45630 0.0 1018763
13:00+25e55530 0.0 10151248
16:00+24e45570 0.0 1015882
19:00+22ene46640 0.0 1016442
22:00+22ene46650 0.0 1017474